Weather History for New Castle, PA

Change the Weather History Date:

Friday, February 15, 2013

  Actual Average Record
Temperature  
Mean Temperature 30 °F -  
Max Temperature 36 °F 39 °F 69 °F (1938)
Min Temperature 22 °F 20 °F -8 °F (1943)
Degree Days  
Heating Degree Days 35    
Moisture  
Dew Point 24 °F    
Average Humidity 75    
Maximum Humidity 93    
Minimum Humidity 55    
Precipitation  
Precipitation 0.00 in - - ()
Sea Level Pressure  
Sea Level Pressure 30.06 in    
Wind  
Wind Speed 7 mph (West)    
Max Wind Speed 13 mph    
Max Gust Speed -    
Visibility 8 miles    
Events Snow    
Averages and records for this station are not official NWS values.
T = Trace of Precipitation, MM = Missing Value Source: NWS Daily Summary

Daily Weather History Graph

Daily Weather History Graph

Search for Another Location

Airport:

Trip Planner

Search our weather history database for the weather conditions in past years. The results will help you decide how hot, cold, wet, or windy it might be!

Date:

Astronomy

Feb. 15, 2013 Rise Set
Actual Time 7:15 AM EST 5:56 PM EST
Civil Twilight 6:47 AM EST 6:24 PM EST
Nautical Twilight 6:15 AM EST 6:56 PM EST
Astronomical Twilight 5:43 AM EST 7:28 PM EST
Moon 9:47 AM EST (2/15) 11:59 PM EST (2/15)
Length of Visible Light 11h 37m
Length of Day
10h 40m
Waxing Crescent, 30% of the Moon is Illuminated
Feb 15
Waxing Crescent
Feb 17
First Quarter
Feb 25
Full
Mar 4
Last Quarter
Mar 11
New

Hourly Weather History & Observations

Time (EST) Temp. Windchill Dew Point Humidity Pressure Visibility Wind Dir Wind Speed Gust Speed Precip Events Conditions
12:56 AM 34.0 °F 25.0 °F 26.1 °F 73% 29.98 in 10.0 mi WSW 12.7 mph - N/A   Mostly Cloudy
1:56 AM 32.9 °F 27.5 °F 26.1 °F 76% 29.98 in 10.0 mi SW 5.8 mph - N/A   Mostly Cloudy
2:56 AM 32.9 °F 26.7 °F 25.2 °F 73% 29.99 in 10.0 mi Variable 6.9 mph - N/A   Mostly Cloudy
3:56 AM 32.0 °F 24.2 °F 25.2 °F 76% 30.00 in 10.0 mi WSW 9.2 mph - N/A   Scattered Clouds
4:56 AM 31.1 °F 23.1 °F 24.1 °F 75% 30.02 in 10.0 mi West 9.2 mph - N/A   Mostly Cloudy
5:56 AM 32.0 °F 25.6 °F 22.1 °F 67% 30.04 in 10.0 mi West 6.9 mph - N/A   Overcast
6:56 AM 32.0 °F 26.4 °F 22.1 °F 67% 30.06 in 10.0 mi SW 5.8 mph - N/A   Overcast
7:40 AM 32.0 °F - 24.8 °F 75% 29.99 in 10.0 mi Calm Calm - N/A   Overcast
7:56 AM 32.0 °F - 25.2 °F 76% 30.07 in 10.0 mi Calm Calm - N/A   Overcast
8:27 AM 32.0 °F - 24.8 °F 75% 30.01 in 10.0 mi Calm Calm - N/A   Overcast
8:56 AM 32.9 °F 29.8 °F 24.1 °F 70% 30.09 in 10.0 mi Variable 3.5 mph - N/A   Overcast
9:56 AM 34.0 °F 26.6 °F 22.1 °F 62% 30.09 in 10.0 mi West 9.2 mph - N/A   Scattered Clouds
10:56 AM 34.9 °F 28.3 °F 24.1 °F 65% 30.10 in 10.0 mi West 8.1 mph - N/A   Mostly Cloudy
11:56 AM 36.0 °F 29.6 °F 24.1 °F 62% 30.10 in 10.0 mi WSW 8.1 mph - N/A   Mostly Cloudy
12:56 PM 36.9 °F 29.6 °F 23.0 °F 57% 30.07 in 10.0 mi West 10.4 mph - N/A   Scattered Clouds
1:56 PM 36.0 °F 31.1 °F 21.0 °F 55% 30.06 in 10.0 mi WSW 5.8 mph - N/A   Overcast
2:56 PM 36.9 °F 30.1 °F 23.0 °F 57% 30.06 in 10.0 mi West 9.2 mph - 0.00 in   Mostly Cloudy
3:56 PM 34.0 °F 26.6 °F 25.2 °F 70% 30.07 in 10.0 mi NW 9.2 mph - N/A   Mostly Cloudy
4:56 PM 32.9 °F 25.3 °F 26.1 °F 76% 30.09 in 10.0 mi NW 9.2 mph - 0.00 in Snow Light Snow
5:12 PM 32.0 °F 25.6 °F 26.6 °F 80% 30.01 in 2.5 mi NW 6.9 mph - 0.00 in Snow Light Snow
5:26 PM 30.2 °F 25.4 °F 26.6 °F 86% 30.01 in 4.0 mi North 4.6 mph - 0.00 in Snow Light Snow
5:43 PM 30.2 °F 22.6 °F 26.6 °F 86% 30.02 in 2.5 mi West 8.1 mph - 0.00 in Snow Light Snow
5:45 PM 30.2 °F 21.9 °F 26.6 °F 86% 30.02 in 1.8 mi West 9.2 mph - 0.00 in Snow Light Snow
5:56 PM 30.0 °F 24.1 °F 27.1 °F 89% 30.10 in 2.5 mi Variable 5.8 mph - 0.00 in Snow Light Snow
6:04 PM 28.4 °F 23.3 °F 26.6 °F 93% 30.03 in 3.0 mi WNW 4.6 mph - 0.00 in Snow Light Snow
6:35 PM 30.2 °F - 26.6 °F 86% 30.03 in 7.0 mi Calm Calm - 0.00 in Snow Light Snow
6:42 PM 30.2 °F 24.3 °F 26.6 °F 86% 30.03 in 5.0 mi North 5.8 mph - 0.00 in Snow Light Snow
6:56 PM 29.1 °F 20.6 °F 26.1 °F 88% 30.12 in 5.0 mi North 9.2 mph - 0.00 in Snow Light Snow
7:56 PM 27.1 °F 18.2 °F 23.0 °F 84% 30.14 in 10.0 mi North 9.2 mph - 0.00 in Snow Light Snow
8:56 PM 26.1 °F 18.4 °F 19.0 °F 75% 30.14 in 10.0 mi NW 6.9 mph - 0.00 in   Scattered Clouds
9:56 PM 24.1 °F - 19.0 °F 81% 30.15 in 10.0 mi Calm Calm - N/A   Mostly Cloudy
10:56 PM 24.1 °F - 18.1 °F 78% 30.14 in 10.0 mi Calm Calm - N/A   Overcast
11:56 PM 22.1 °F - 18.1 °F 85% 30.14 in 10.0 mi Calm Calm - N/A   Scattered Clouds